Montross, Virginia, United States (22520)
Lat: 38.09N, Lon: 76.83W
Wx Zone: VAZ075
Local Info
Past Weather Observations for Tuesday, August 19, 2014

NOTE: This archive is for the closest National Weather Service station to Montross. Information may differ from the station used for current weather conditions.

Click here for Long-term Archive

Time Weather Temperature Dewpoint Humidity Pressure Winds Precip Visibility
23:52
Clear
73°F / 23°C 64°F / 18°C 74% 29.92 in
(1013 mb)
SE 8.1 mph
(SE 13 kph)
- 10SM
22:52
Clear
73°F / 23°C 63°F / 17°C 69% 29.92 in
(1013 mb)
SE 8.1 mph
(SE 13 kph)
- 10SM
21:52
Partly Cloudy
73°F / 23°C 63°F / 17°C 69% 29.92 in
(1013 mb)
SE 8.1 mph
(SE 13 kph)
- 10SM
20:52
Partly Cloudy
75°F / 24°C 64°F / 18°C 69% 29.92 in
(1013 mb)
ESE 10.4 mph
(ESE 17 kph)
- 10SM
19:52
Partly Cloudy
75°F / 24°C 68°F / 20°C 78% 29.89 in
(1012 mb)
E 9.2 mph
(E 15 kph)
- 10SM
18:52
Partly Cloudy
77°F / 25°C 70°F / 21°C 79% 29.86 in
(1011 mb)
ESE 8.1 mph
(ESE 13 kph)
- 10SM
17:52
Mostly Cloudy
79°F / 26°C 70°F / 21°C 74% 29.86 in
(1011 mb)
SE 5.8 mph
(SE 9 kph)
- 10SM
16:52
Mostly Cloudy
79°F / 26°C 70°F / 21°C 74% 29.86 in
(1011 mb)
SE 4.6 mph
(SE 7 kph)
- 10SM
15:52
Mostly Cloudy
79°F / 26°C 70°F / 21°C 74% 29.83 in
(1010 mb)
ESE 3.5 mph
(ESE 6 kph)
- 10SM
14:52
Mostly Cloudy
79°F / 26°C 70°F / 21°C 74% 29.86 in
(1011 mb)
ESE 4.6 mph
(ESE 7 kph)
- 10SM
13:52
Mostly Cloudy
79°F / 26°C 72°F / 22°C 79% 29.86 in
(1011 mb)
SE 5.8 mph
(SE 9 kph)
0.00 in
(0.00 mm)
10SM
12:52
Mostly Cloudy
79°F / 26°C 70°F / 21°C 74% 29.86 in
(1011 mb)
ESE 5.8 mph
(ESE 9 kph)
- 10SM
11:52
Mostly Cloudy
81°F / 27°C 72°F / 22°C 74% 29.86 in
(1011 mb)
E 9.2 mph
(E 15 kph)
- 10SM
10:52
Partly Cloudy
81°F / 27°C 72°F / 22°C 74% 29.86 in
(1011 mb)
ESE 11.5 mph
(ESE 19 kph)
- 10SM
10:36
Mostly Cloudy
75°F / 24°C 72°F / 22°C 89% 29.86 in
(1011 mb)
ESE 10.4 mph
(ESE 17 kph)
- 10SM
10:08
Overcast
75°F / 24°C 72°F / 22°C 89% 29.86 in
(1011 mb)
E 12.7 mph
(E 20 kph)
- 10SM
09:52
Overcast
75°F / 24°C 70°F / 21°C 83% 29.86 in
(1011 mb)
E 13.8 mph
(E 22 kph)
0.00 in
(0.00 mm)
8SM
09:12
Overcast
Light Rain
75°F / 24°C 72°F / 22°C 89% 29.83 in
(1010 mb)
ENE 9.2 mph
(ENE 15 kph)
0.00 in
(0.00 mm)
7SM
08:52
Overcast
Light Rain
75°F / 24°C 72°F / 22°C 89% 29.83 in
(1010 mb)
ENE 8.1 mph
(ENE 13 kph)
0.00 in
(0.00 mm)
7SM
08:35
Overcast
Light Rain
75°F / 24°C 72°F / 22°C 89% 29.83 in
(1010 mb)
ENE 9.2 mph
(ENE 15 kph)
0.00 in
(0.00 mm)
7SM
07:52
Overcast
73°F / 23°C 72°F / 22°C 94% 29.83 in
(1010 mb)
E 6.9 mph
(E 11 kph)
- 7SM
07:42
Mostly Cloudy
73°F / 23°C 72°F / 22°C 94% 29.83 in
(1010 mb)
ENE 9.2 mph
(ENE 15 kph)
- 7SM
07:34
Mostly Cloudy
73°F / 23°C 72°F / 22°C 94% 29.83 in
(1010 mb)
ENE 9.2 mph
(ENE 15 kph)
- 8SM
06:52
Partly Cloudy
73°F / 23°C 72°F / 22°C 94% 29.83 in
(1010 mb)
E 5.8 mph
(E 9 kph)
- 7SM
06:28
Partly Cloudy
Fog And Mist
73°F / 23°C 72°F / 22°C 94% 29.8 in
(1009 mb)
NE 3.5 mph
(NE 6 kph)
- 5SM
05:52
Partly Cloudy
72°F / 22°C 70°F / 21°C 94% 29.8 in
(1009 mb)
NE 8.1 mph
(NE 13 kph)
- 8SM
05:10
Mostly Cloudy
72°F / 22°C 70°F / 21°C 94% 29.8 in
(1009 mb)
NE 4.6 mph
(NE 7 kph)
- 7SM
04:52
Mostly Cloudy
72°F / 22°C 70°F / 21°C 94% 29.8 in
(1009 mb)
ENE 4.6 mph
(ENE 7 kph)
- 8SM
04:26
Partly Cloudy
72°F / 22°C 70°F / 21°C 94% 29.8 in
(1009 mb)
NE 4.6 mph
(NE 7 kph)
- 8SM
03:52
Mostly Cloudy
72°F / 22°C 70°F / 21°C 94% 29.8 in
(1009 mb)
NE 3.5 mph
(NE 6 kph)
- 7SM
03:29
Mostly Cloudy
73°F / 23°C 70°F / 21°C 89% 29.77 in
(1008 mb)
E 5.8 mph
(E 9 kph)
- 8SM
03:17
Mostly Cloudy
72°F / 22°C 70°F / 21°C 94% 29.8 in
(1009 mb)
E 4.6 mph
(E 7 kph)
- 8SM
03:09
Mostly Cloudy
73°F / 23°C 70°F / 21°C 89% 29.8 in
(1009 mb)
E 5.8 mph
(E 9 kph)
- 9SM
02:52
Overcast
73°F / 23°C 70°F / 21°C 89% 29.8 in
(1009 mb)
E 3.5 mph
(E 6 kph)
- 10SM
02:26
Overcast
72°F / 22°C 70°F / 21°C 94% 29.8 in
(1009 mb)
Calm - 10SM
02:17
Overcast
72°F / 22°C 68°F / 20°C 88% 29.8 in
(1009 mb)
Calm - 10SM
02:07
Mostly Cloudy
72°F / 22°C 70°F / 21°C 94% 29.8 in
(1009 mb)
Calm - 10SM
01:52
Mostly Cloudy
72°F / 22°C 68°F / 20°C 88% 29.8 in
(1009 mb)
Calm - 10SM
00:52
Overcast
73°F / 23°C 70°F / 21°C 89% 29.8 in
(1009 mb)
Calm - 10SM
Time Weather Temperature Dewpoint Humidity Pressure Winds Precip Visibility


Weather for websites

WeatherForYou.com, LLC is not responsible for any damages or problems caused by this service. Current weather conditions are obtained from the closest station including government and personal stations which may have varying degrees of accuracy. Weather forecasts are derived from the NOAA NDFD. Like all things, this site belongs to Jesus Christ... He just trusts me to maintain it. If you have any questions or comments email webmaster@weatherforyou.com

Copyright © 2014, WeatherForYou.com LLC. All rights reserved.